| time (UTC) | temp F | wind direction | speed MPH | gust MPH | rain 1hr in | rain 24hr in | rain mn in | humidity % | barometer mb |
| 20260506080212 | 61 | 200 | 5.0 | 9.0 | 0.00 | 0.00 | 0.00 | 36 | 1012.7 |
| 20260506073212 | 61 | 170 | 4.0 | 6.0 | 0.00 | 0.00 | 0.00 | 35 | 1012.6 |
| 20260506072712 | 61 | 145 | 4.0 | 7.0 | 0.00 | 0.00 | 0.00 | 35 | 1012.6 |
| 20260506072212 | 61 | 152 | 5.0 | 9.0 | 0.00 | 0.00 | 0.00 | 34 | 1012.5 |
| 20260506071712 | 62 | 177 | 5.0 | 9.0 | 0.00 | 0.00 | 0.00 | 33 | 1012.5 |
| 20260506071212 | 62 | 190 | 5.0 | 8.0 | 0.00 | 0.00 | 0.00 | 33 | 1012.5 |
| 20260506070711 | 62 | 187 | 4.0 | 7.0 | 0.00 | 0.00 | 0.00 | 33 | 1012.6 |
| 20260506070211 | 62 | 231 | 3.0 | 7.0 | 0.00 | 0.00 | 0.00 | 33 | 1012.5 |
| 20260506062211 | 63 | 167 | 7.0 | 11.0 | 0.00 | 0.00 | 0.00 | 30 | 1012.0 |
| 20260506061711 | 63 | 146 | 4.0 | 8.0 | 0.00 | 0.00 | 0.00 | 31 | 1012.0 |
| 20260506061211 | 63 | 191 | 5.0 | 11.0 | 0.00 | 0.00 | 0.00 | 31 | 1011.9 |
| 20260506060711 | 63 | 203 | 6.0 | 11.0 | 0.00 | 0.00 | 0.00 | 30 | 1011.9 |
| 20260506060211 | 64 | 194 | 6.0 | 9.0 | 0.00 | 0.00 | 0.00 | 30 | 1011.9 |
| 20260506051211 | 65 | 190 | 6.0 | 12.0 | 0.00 | 0.00 | 0.00 | 31 | 1011.4 |
| 20260506050711 | 65 | 194 | 7.0 | 12.0 | 0.00 | 0.00 | 0.00 | 31 | 1011.4 |
| 20260506050211 | 65 | 198 | 7.0 | 10.0 | 0.00 | 0.00 | 0.00 | 32 | 1011.4 |
| 20260506044711 | 65 | 163 | 7.0 | 12.0 | 0.00 | 0.00 | 0.00 | 33 | 1011.2 |
| 20260506044211 | 66 | 180 | 6.0 | 10.0 | 0.00 | 0.00 | 0.00 | 34 | 1011.2 |
| 20260506043711 | 65 | 180 | 6.0 | 10.0 | 0.00 | 0.00 | 0.00 | 34 | 1011.2 |
| 20260506043211 | 66 | 190 | 5.0 | 9.0 | 0.00 | 0.00 | 0.00 | 34 | 1011.1 |
| 20260506042711 | 66 | 156 | 5.0 | 9.0 | 0.00 | 0.00 | 0.00 | 34 | 1011.1 |
| 20260506042211 | 66 | 170 | 6.0 | 8.0 | 0.00 | 0.00 | 0.00 | 34 | 1011.1 |
| 20260506041711 | 66 | 198 | 5.0 | 7.0 | 0.00 | 0.00 | 0.00 | 34 | 1011.0 |
| 20260506041211 | 66 | 179 | 5.0 | 7.0 | 0.00 | 0.00 | 0.00 | 34 | 1011.0 |
| 20260506040711 | 66 | 190 | 4.0 | 9.0 | 0.00 | 0.00 | 0.00 | 34 | 1010.8 |
| 20260506040211 | 66 | 187 | 4.0 | 9.0 | 0.00 | 0.00 | 0.00 | 34 | 1010.7 |
| 20260506035711 | 66 | 174 | 5.0 | 7.0 | 0.00 | 0.00 | 0.00 | 34 | 1010.7 |
| 20260506035211 | 66 | 195 | 5.0 | 7.0 | 0.00 | 0.00 | 0.00 | 34 | 1010.7 |
| 20260506034711 | 66 | 179 | 4.0 | 8.0 | 0.00 | 0.00 | 0.00 | 34 | 1010.6 |
| 20260506034211 | 66 | 191 | 4.0 | 8.0 | 0.00 | 0.00 | 0.00 | 34 | 1010.5 |
| 20260506033711 | 66 | 173 | 5.0 | 8.0 | 0.00 | 0.00 | 0.00 | 35 | 1010.5 |
| 20260506033211 | 66 | 186 | 4.0 | 6.0 | 0.00 | 0.00 | 0.00 | 35 | 1010.5 |
| 20260506032711 | 67 | 214 | 3.0 | 5.0 | 0.00 | 0.00 | 0.00 | 34 | 1010.5 |
| 20260506032211 | 67 | 190 | 3.0 | 6.0 | 0.00 | 0.00 | 0.00 | 34 | 1010.5 |
| 20260506031711 | 67 | 190 | 4.0 | 9.0 | 0.00 | 0.00 | 0.00 | 34 | 1010.4 |
| 20260506031211 | 67 | 184 | 4.0 | 9.0 | 0.00 | 0.00 | 0.00 | 33 | 1010.4 |
| 20260506030711 | 67 | 188 | 4.0 | 9.0 | 0.00 | 0.00 | 0.00 | 33 | 1010.3 |
| 20260506030211 | 67 | 201 | 4.0 | 8.0 | 0.00 | 0.00 | 0.00 | 34 | 1010.3 |
| 20260506025711 | 67 | 184 | 4.0 | 8.0 | 0.00 | 0.00 | 0.00 | 34 | 1010.3 |
| 20260506025211 | 67 | 215 | 3.0 | 7.0 | 0.00 | 0.00 | 0.00 | 34 | 1010.1 |
| 20260506024711 | 67 | 195 | 4.0 | 8.0 | 0.00 | 0.00 | 0.00 | 34 | 1010.1 |
| 20260506024211 | 67 | 187 | 5.0 | 8.0 | 0.00 | 0.00 | 0.00 | 34 | 1010.1 |
| 20260506023711 | 67 | 197 | 2.0 | 7.0 | 0.00 | 0.00 | 0.00 | 34 | 1009.9 |
| 20260506023211 | 67 | 180 | 4.0 | 6.0 | 0.00 | 0.00 | 0.00 | 34 | 1010.0 |
| 20260506022711 | 68 | 173 | 0.0 | 7.0 | 0.00 | 0.00 | 0.00 | 33 | 1009.9 |
| 20260506022211 | 68 | 181 | 3.0 | 8.0 | 0.00 | 0.00 | 0.00 | 33 | 1009.9 |
| 20260506021711 | 68 | 181 | 4.0 | 9.0 | 0.00 | 0.00 | 0.00 | 33 | 1009.9 |
| 20260506021211 | 68 | 198 | 6.0 | 9.0 | 0.00 | 0.00 | 0.00 | 33 | 1009.9 |
| 20260506020711 | 68 | 203 | 4.0 | 8.0 | 0.00 | 0.00 | 0.00 | 33 | 1009.8 |
| 20260506020211 | 68 | 183 | 4.0 | 8.0 | 0.00 | 0.00 | 0.00 | 32 | 1009.8 |
| 20260506015711 | 69 | 186 | 5.0 | 7.0 | 0.00 | 0.00 | 0.00 | 32 | 1009.8 |
| 20260506015211 | 69 | 204 | 5.0 | 7.0 | 0.00 | 0.00 | 0.00 | 32 | 1009.8 |
| 20260506014711 | 69 | 204 | 4.0 | 9.0 | 0.00 | 0.00 | 0.00 | 31 | 1009.7 |
| 20260506014211 | 70 | 205 | 6.0 | 10.0 | 0.00 | 0.00 | 0.00 | 31 | 1009.7 |
| 20260506013711 | 70 | 179 | 7.0 | 10.0 | 0.00 | 0.00 | 0.00 | 30 | 1009.6 |
| 20260506013211 | 70 | 174 | 6.0 | 10.0 | 0.00 | 0.00 | 0.00 | 30 | 1009.6 |
| 20260506012711 | 70 | 174 | 6.0 | 11.0 | 0.00 | 0.00 | 0.00 | 30 | 1009.7 |
| 20260506012211 | 71 | 195 | 9.0 | 11.0 | 0.00 | 0.00 | 0.00 | 29 | 1009.7 |
| 20260506011711 | 70 | 225 | 6.0 | 13.0 | 0.00 | 0.00 | 0.00 | 29 | 1009.6 |
| 20260506011211 | 71 | 187 | 6.0 | 14.0 | 0.00 | 0.00 | 0.00 | 29 | 1009.7 |
| 20260506010711 | 71 | 162 | 5.0 | 14.0 | 0.00 | 0.00 | 0.00 | 29 | 1009.7 |
| 20260506010211 | 71 | 201 | 8.0 | 14.0 | 0.00 | 0.00 | 0.00 | 28 | 1009.7 |
| 20260506005711 | 71 | 212 | 9.0 | 14.0 | 0.00 | 0.00 | 0.00 | 28 | 1009.6 |
| 20260506005211 | 71 | 212 | 8.0 | 14.0 | 0.00 | 0.00 | 0.00 | 27 | 1009.7 |
| 20260506004711 | 71 | 236 | 5.0 | 13.0 | 0.00 | 0.00 | 0.00 | 27 | 1009.7 |
| 20260506004211 | 71 | 236 | 3.0 | 17.0 | 0.00 | 0.00 | 0.00 | 27 | 1009.7 |
| 20260506003711 | 71 | 201 | 8.0 | 17.0 | 0.00 | 0.00 | 0.00 | 26 | 1009.4 |
| 20260506003211 | 72 | 228 | 6.0 | 14.0 | 0.00 | 0.00 | 0.00 | 26 | 1009.4 |
| 20260506002711 | 72 | 194 | 6.0 | 16.0 | 0.00 | 0.00 | 0.00 | 27 | 1009.4 |
| 20260506002211 | 72 | 222 | 6.0 | 16.0 | 0.00 | 0.00 | 0.00 | 26 | 1009.4 |
| 20260506001711 | 72 | 257 | 6.0 | 20.0 | 0.00 | 0.00 | 0.00 | 26 | 1009.6 |
| 20260506001211 | 72 | 260 | 4.0 | 20.0 | 0.00 | 0.00 | 0.00 | 26 | 1009.6 |
| 20260506000711 | 72 | 224 | 6.0 | 14.0 | 0.00 | 0.00 | 0.00 | 26 | 1009.7 |
| 20260506000212 | 72 | 239 | 7.0 | 15.0 | 0.00 | 0.00 | 0.00 | 26 | 1009.6 |
| 20260505235711 | 72 | 194 | 8.0 | 15.0 | 0.00 | 0.00 | 0.00 | 26 | 1009.6 |
| 20260505235211 | 71 | 188 | 3.0 | 18.0 | 0.00 | 0.00 | 0.00 | 29 | 1009.6 |
| 20260505234711 | 71 | 211 | 13.0 | 18.0 | 0.00 | 0.00 | 0.00 | 31 | 1009.7 |
| 20260505234211 | 71 | 200 | 9.0 | 15.0 | 0.00 | 0.00 | 0.00 | 32 | 1009.7 |
| 20260505233711 | 71 | 170 | 10.0 | 16.0 | 0.00 | 0.00 | 0.00 | 32 | 1009.8 |
| 20260505233211 | 71 | 193 | 10.0 | 20.0 | 0.00 | 0.00 | 0.00 | 33 | 1009.8 |
| 20260505232711 | 71 | 204 | 10.0 | 20.0 | 0.00 | 0.00 | 0.00 | 32 | 1009.7 |
| 20260505232211 | 71 | 226 | 10.0 | 17.0 | 0.00 | 0.00 | 0.00 | 34 | 1009.7 |
| 20260505231711 | 70 | 198 | 11.0 | 19.0 | 0.00 | 0.00 | 0.00 | 34 | 1009.7 |
| 20260505231211 | 70 | 156 | 10.0 | 19.0 | 0.00 | 0.00 | 0.00 | 34 | 1009.6 |
| 20260505230711 | 70 | 169 | 11.0 | 19.0 | 0.00 | 0.00 | 0.00 | 34 | 1009.7 |
| 20260505230211 | 70 | 172 | 13.0 | 20.0 | 0.00 | 0.00 | 0.00 | 34 | 1009.9 |
| 20260505225711 | 70 | 172 | 14.0 | 20.0 | 0.00 | 0.00 | 0.00 | 34 | 1009.9 |
| 20260505225211 | 71 | 207 | 9.0 | 18.0 | 0.00 | 0.00 | 0.00 | 33 | 1010.0 |
| 20260505224711 | 71 | 219 | 12.0 | 19.0 | 0.00 | 0.00 | 0.00 | 34 | 1010.1 |
| 20260505224211 | 71 | 156 | 12.0 | 19.0 | 0.00 | 0.00 | 0.00 | 34 | 1010.1 |
| 20260505223711 | 71 | 229 | 10.0 | 17.0 | 0.00 | 0.00 | 0.00 | 34 | 1010.0 |
| 20260505223211 | 70 | 201 | 9.0 | 17.0 | 0.00 | 0.00 | 0.00 | 35 | 1010.3 |
| 20260505222711 | 70 | 197 | 6.0 | 19.0 | 0.00 | 0.00 | 0.00 | 35 | 1010.4 |
| 20260505222211 | 70 | 219 | 11.0 | 19.0 | 0.00 | 0.00 | 0.00 | 35 | 1010.4 |
| 20260505221711 | 70 | 217 | 9.0 | 20.0 | 0.00 | 0.00 | 0.00 | 35 | 1010.5 |
| 20260505221211 | 70 | 204 | 12.0 | 20.0 | 0.00 | 0.00 | 0.00 | 35 | 1010.6 |
| 20260505220710 | 70 | 201 | 11.0 | 18.0 | 0.00 | 0.00 | 0.00 | 35 | 1010.8 |
| 20260505220210 | 70 | 204 | 12.0 | 18.0 | 0.00 | 0.00 | 0.00 | 35 | 1010.8 |
| 20260505215710 | 70 | 240 | 10.0 | 18.0 | 0.00 | 0.00 | 0.00 | 35 | 1011.0 |
| 20260505215210 | 71 | 238 | 3.0 | 16.0 | 0.00 | 0.00 | 0.00 | 35 | 1011.0 |
| 20260505214710 | 71 | 239 | 4.0 | 16.0 | 0.00 | 0.00 | 0.00 | 35 | 1011.0 |
| 20260505214210 | 71 | 243 | 8.0 | 15.0 | 0.00 | 0.00 | 0.00 | 34 | 1011.1 |
| 20260505213710 | 71 | 195 | 3.0 | 15.0 | 0.00 | 0.00 | 0.00 | 36 | 1011.1 |
| 20260505213210 | 70 | 184 | 8.0 | 19.0 | 0.00 | 0.00 | 0.00 | 35 | 1011.2 |
| 20260505212710 | 70 | 156 | 10.0 | 19.0 | 0.00 | 0.00 | 0.00 | 36 | 1011.3 |
| 20260505212210 | 70 | 226 | 7.0 | 19.0 | 0.00 | 0.00 | 0.00 | 37 | 1011.4 |
| 20260505211710 | 70 | 160 | 12.0 | 19.0 | 0.00 | 0.00 | 0.00 | 35 | 1011.5 |
| 20260505211210 | 70 | 210 | 4.0 | 15.0 | 0.00 | 0.00 | 0.00 | 37 | 1011.7 |
| 20260505210710 | 70 | 215 | 7.0 | 15.0 | 0.00 | 0.00 | 0.00 | 37 | 1011.8 |
| 20260505210210 | 70 | 172 | 8.0 | 14.0 | 0.00 | 0.00 | 0.00 | 38 | 1011.9 |
| 20260505205710 | 70 | 219 | 9.0 | 16.0 | 0.00 | 0.00 | 0.00 | 38 | 1012.0 |
| 20260505205210 | 69 | 208 | 4.0 | 16.0 | 0.00 | 0.00 | 0.00 | 39 | 1012.1 |
| 20260505204710 | 69 | 197 | 9.0 | 14.0 | 0.00 | 0.00 | 0.00 | 40 | 1012.2 |
| 20260505204210 | 68 | 195 | 7.0 | 17.0 | 0.00 | 0.00 | 0.00 | 40 | 1012.4 |
| 20260505203710 | 68 | 222 | 8.0 | 17.0 | 0.00 | 0.00 | 0.00 | 40 | 1012.5 |
| 20260505203210 | 68 | 222 | 9.0 | 17.0 | 0.00 | 0.00 | 0.00 | 40 | 1012.5 |
| 20260505202710 | 68 | 200 | 8.0 | 17.0 | 0.00 | 0.00 | 0.00 | 41 | 1012.6 |
| 20260505202210 | 68 | 235 | 5.0 | 17.0 | 0.00 | 0.00 | 0.00 | 42 | 1012.7 |
| 20260505201710 | 67 | 214 | 12.0 | 17.0 | 0.00 | 0.00 | 0.00 | 43 | 1012.8 |
| 20260505201210 | 67 | 259 | 5.0 | 20.0 | 0.00 | 0.00 | 0.00 | 43 | 1012.9 |
| 20260505200710 | 67 | 231 | 8.0 | 20.0 | 0.00 | 0.00 | 0.00 | 44 | 1012.9 |
| 20260505200210 | 67 | 218 | 9.0 | 18.0 | 0.00 | 0.00 | 0.00 | 44 | 1012.8 |
| 20260505195710 | 66 | 222 | 6.0 | 19.0 | 0.00 | 0.00 | 0.00 | 43 | 1012.8 |
| 20260505195210 | 67 | 218 | 8.0 | 19.0 | 0.00 | 0.00 | 0.00 | 43 | 1012.7 |
| 20260505194710 | 67 | 226 | 4.0 | 12.0 | 0.00 | 0.00 | 0.00 | 43 | 1012.8 |
| 20260505194210 | 67 | 232 | 7.0 | 20.0 | 0.00 | 0.00 | 0.00 | 43 | 1012.8 |
| 20260505193710 | 67 | 225 | 6.0 | 20.0 | 0.00 | 0.00 | 0.00 | 42 | 1012.8 |
| 20260505193210 | 67 | 250 | 5.0 | 16.0 | 0.00 | 0.00 | 0.00 | 42 | 1012.7 |
| 20260505192710 | 67 | 197 | 7.0 | 19.0 | 0.00 | 0.00 | 0.00 | 41 | 1012.9 |
| 20260505192210 | 67 | 269 | 10.0 | 19.0 | 0.00 | 0.00 | 0.00 | 40 | 1012.7 |
| 20260505191710 | 68 | 271 | 6.0 | 12.0 | 0.00 | 0.00 | 0.00 | 39 | 1012.7 |
| 20260505191210 | 67 | 263 | 3.0 | 12.0 | 0.00 | 0.00 | 0.00 | 40 | 1012.6 |
| 20260505190710 | 67 | 158 | 7.0 | 12.0 | 0.00 | 0.00 | 0.00 | 40 | 1012.6 |
| 20260505190210 | 67 | 252 | 7.0 | 12.0 | 0.00 | 0.00 | 0.00 | 39 | 1012.6 |
| 20260505185710 | 67 | 229 | 6.0 | 13.0 | 0.00 | 0.00 | 0.00 | 39 | 1012.5 |
| 20260505185210 | 67 | 226 | 5.0 | 13.0 | 0.00 | 0.00 | 0.00 | 38 | 1012.2 |
| 20260505184710 | 67 | 210 | 6.0 | 13.0 | 0.00 | 0.00 | 0.00 | 38 | 1012.2 |
| 20260505184210 | 67 | 215 | 7.0 | 17.0 | 0.00 | 0.00 | 0.00 | 38 | 1012.6 |
| 20260505183710 | 67 | 169 | 8.0 | 17.0 | 0.00 | 0.00 | 0.00 | 38 | 1012.6 |
| 20260505183210 | 68 | 170 | 11.0 | 16.0 | 0.00 | 0.00 | 0.00 | 35 | 1012.7 |
| 20260505182710 | 70 | 218 | 4.0 | 16.0 | 0.00 | 0.00 | 0.00 | 32 | 1012.5 |
| 20260505182210 | 70 | 259 | 1.0 | 8.0 | 0.00 | 0.00 | 0.00 | 32 | 1012.4 |
| 20260505181710 | 70 | 255 | 0.0 | 4.0 | 0.00 | 0.00 | 0.00 | 33 | 1012.1 |
| 20260505181210 | 69 | 255 | 0.0 | 8.0 | 0.00 | 0.00 | 0.00 | 33 | 1012.2 |
| 20260505180710 | 68 | 228 | 0.0 | 8.0 | 0.00 | 0.00 | 0.00 | 34 | 1012.4 |
| 20260505180210 | 68 | 197 | 3.0 | 10.0 | 0.00 | 0.00 | 0.00 | 33 | 1012.5 |
| 20260505175710 | 68 | 193 | 4.0 | 11.0 | 0.00 | 0.00 | 0.00 | 33 | 1012.6 |
| 20260505175210 | 67 | 191 | 5.0 | 12.0 | 0.00 | 0.00 | 0.00 | 33 | 1012.6 |
| 20260505174710 | 67 | 194 | 9.0 | 12.0 | 0.00 | 0.00 | 0.00 | 32 | 1012.6 |
| 20260505174210 | 67 | 208 | 5.0 | 13.0 | 0.00 | 0.00 | 0.00 | 33 | 1012.5 |
| 20260505173710 | 67 | 197 | 7.0 | 14.0 | 0.00 | 0.00 | 0.00 | 33 | 1012.6 |
| 20260505173210 | 67 | 219 | 5.0 | 14.0 | 0.00 | 0.00 | 0.00 | 33 | 1012.6 |
| 20260505172710 | 67 | 195 | 8.0 | 14.0 | 0.00 | 0.00 | 0.00 | 34 | 1012.6 |
| 20260505172210 | 68 | 200 | 8.0 | 14.0 | 0.00 | 0.00 | 0.00 | 34 | 1012.6 |
| 20260505171710 | 68 | 177 | 10.0 | 14.0 | 0.00 | 0.00 | 0.00 | 34 | 1012.5 |
| 20260505171210 | 68 | 228 | 5.0 | 11.0 | 0.00 | 0.00 | 0.00 | 31 | 1012.5 |
| 20260505170710 | 68 | 193 | 7.0 | 12.0 | 0.00 | 0.00 | 0.00 | 31 | 1012.5 |
| 20260505170210 | 68 | 219 | 6.0 | 12.0 | 0.00 | 0.00 | 0.00 | 31 | 1012.5 |
| 20260505165710 | 68 | 155 | 3.0 | 10.0 | 0.00 | 0.00 | 0.00 | 31 | 1012.5 |
| 20260505165210 | 68 | 174 | 7.0 | 12.0 | 0.00 | 0.00 | 0.00 | 32 | 1012.5 |
| 20260505164710 | 67 | 184 | 7.0 | 12.0 | 0.00 | 0.00 | 0.00 | 32 | 1012.5 |
| 20260505164210 | 68 | 190 | 7.0 | 11.0 | 0.00 | 0.00 | 0.00 | 32 | 1012.5 |
| 20260505163710 | 68 | 191 | 2.0 | 9.0 | 0.00 | 0.00 | 0.00 | 33 | 1012.2 |
| 20260505163210 | 68 | 211 | 3.0 | 9.0 | 0.00 | 0.00 | 0.00 | 34 | 1012.2 |
| 20260505162710 | 67 | 188 | 3.0 | 9.0 | 0.00 | 0.00 | 0.00 | 34 | 1012.2 |
| 20260505162210 | 67 | 228 | 0.0 | 6.0 | 0.00 | 0.00 | 0.00 | 35 | 1012.4 |
| 20260505161710 | 66 | 201 | 0.0 | 8.0 | 0.00 | 0.00 | 0.00 | 35 | 1012.6 |
| 20260505161210 | 66 | 228 | 5.0 | 10.0 | 0.00 | 0.00 | 0.00 | 35 | 1012.7 |
| 20260505160710 | 66 | 129 | 0.0 | 10.0 | 0.00 | 0.00 | 0.00 | 35 | 1012.7 |
| 20260505160210 | 66 | 231 | 4.0 | 8.0 | 0.00 | 0.00 | 0.00 | 35 | 1012.9 |
| 20260505153210 | 66 | 193 | 5.0 | 9.0 | 0.00 | 0.00 | 0.00 | 35 | 1012.4 |
| 20260505152710 | 66 | 165 | 4.0 | 10.0 | 0.00 | 0.00 | 0.00 | 36 | 1012.5 |
| 20260505152210 | 66 | 180 | 6.0 | 10.0 | 0.00 | 0.00 | 0.00 | 37 | 1012.5 |
| 20260505151710 | 66 | 197 | 5.0 | 10.0 | 0.00 | 0.00 | 0.00 | 37 | 1012.5 |
| 20260505151210 | 66 | 222 | 7.0 | 9.0 | 0.00 | 0.00 | 0.00 | 37 | 1012.4 |
| 20260505150710 | 66 | 193 | 5.0 | 10.0 | 0.00 | 0.00 | 0.00 | 37 | 1012.2 |
| 20260505150210 | 66 | 208 | 5.0 | 11.0 | 0.00 | 0.00 | 0.00 | 37 | 1012.2 |
| 20260505140210 | 65 | 172 | 6.0 | 10.0 | 0.00 | 0.00 | 0.00 | 37 | 1012.5 |
| 20260505130210 | 65 | 156 | 0.0 | 4.0 | 0.00 | 0.00 | 0.00 | 35 | 1012.0 |
| 20260505124710 | 65 | 146 | 3.0 | 6.0 | 0.00 | 0.00 | 0.00 | 34 | 1011.8 |
| 20260505124210 | 65 | 195 | 4.0 | 6.0 | 0.00 | 0.00 | 0.00 | 34 | 1011.9 |
| 20260505123710 | 65 | 152 | 4.0 | 6.0 | 0.00 | 0.00 | 0.00 | 34 | 1011.9 |
| 20260505123210 | 65 | 203 | 3.0 | 7.0 | 0.00 | 0.00 | 0.00 | 34 | 1011.8 |
| 20260505122710 | 65 | 194 | 5.0 | 9.0 | 0.00 | 0.00 | 0.00 | 34 | 1011.9 |
| 20260505122210 | 65 | 174 | 5.0 | 9.0 | 0.00 | 0.00 | 0.00 | 34 | 1011.9 |
| 20260505121710 | 65 | 183 | 5.0 | 8.0 | 0.00 | 0.00 | 0.00 | 34 | 1011.9 |
| 20260505121210 | 65 | 181 | 5.0 | 8.0 | 0.00 | 0.00 | 0.00 | 36 | 1011.8 |
| 20260505120710 | 65 | 191 | 5.0 | 7.0 | 0.00 | 0.00 | 0.00 | 35 | 1011.8 |
| 20260505120209 | 65 | 158 | 5.0 | 7.0 | 0.00 | 0.00 | 0.00 | 36 | 1011.7 |
| 20260505115709 | 65 | 86 | 0.0 | 0.0 | 0.00 | 0.00 | 0.00 | 36 | 1011.4 |
| 20260505115209 | 65 | 86 | 0.0 | 0.0 | 0.00 | 0.00 | 0.00 | 37 | 1011.5 |
| 20260505114709 | 64 | 86 | 0.0 | 0.0 | 0.00 | 0.00 | 0.00 | 37 | 1011.5 |
| 20260505114209 | 65 | 86 | 0.0 | 0.0 | 0.00 | 0.00 | 0.00 | 37 | 1011.5 |
| 20260505113709 | 65 | 86 | 0.0 | 0.0 | 0.00 | 0.00 | 0.00 | 37 | 1011.5 |
| 20260505113209 | 65 | 86 | 0.0 | 0.0 | 0.00 | 0.00 | 0.00 | 36 | 1011.4 |
| 20260505112709 | 66 | 86 | 0.0 | 0.0 | 0.00 | 0.00 | 0.00 | 35 | 1011.5 |
| 20260505112209 | 66 | 86 | 0.0 | 0.0 | 0.00 | 0.00 | 0.00 | 33 | 1011.7 |
| 20260505111709 | 66 | 86 | 0.0 | 0.0 | 0.00 | 0.00 | 0.00 | 33 | 1011.7 |
| 20260505111209 | 66 | 86 | 0.0 | 0.0 | 0.00 | 0.00 | 0.00 | 34 | 1011.7 |
| 20260505110709 | 66 | 86 | 0.0 | 0.0 | 0.00 | 0.00 | 0.00 | 34 | 1011.8 |
| 20260505110209 | 66 | 86 | 0.0 | 0.0 | 0.00 | 0.00 | 0.00 | 34 | 1011.8 |
| 20260505102015 | 66 | 86 | 0.0 | 0.0 | 0.00 | 0.00 | 0.00 | 34 | 1011.4 |
| 20260505101515 | 67 | 86 | 0.0 | 0.0 | 0.00 | 0.00 | 0.00 | 33 | 1011.3 |
| 20260505101015 | 67 | 86 | 0.0 | 0.0 | 0.00 | 0.00 | 0.00 | 32 | 1011.3 |
| 20260505100515 | 67 | 86 | 0.0 | 0.0 | 0.00 | 0.00 | 0.00 | 31 | 1011.2 |
| 20260505100015 | 67 | 86 | 0.0 | 0.0 | 0.00 | 0.00 | 0.00 | 31 | 1011.2 |
| 20260505095515 | 67 | 86 | 0.0 | 4.0 | 0.00 | 0.00 | 0.00 | 31 | 1011.1 |
| 20260505095015 | 68 | 86 | 0.0 | 4.0 | 0.00 | 0.00 | 0.00 | 31 | 1011.0 |
| 20260505094515 | 67 | 162 | 0.0 | 0.0 | 0.00 | 0.00 | 0.00 | 31 | 1011.2 |
| 20260505094015 | 67 | 162 | 0.0 | 0.0 | 0.00 | 0.00 | 0.00 | 30 | 1011.2 |
| 20260505093515 | 68 | 162 | 0.0 | 0.0 | 0.00 | 0.00 | 0.00 | 30 | 1011.4 |
| 20260505093015 | 68 | 162 | 0.0 | 0.0 | 0.00 | 0.00 | 0.00 | 29 | 1011.4 |
| 20260505092515 | 68 | 162 | 0.0 | 1.0 | 0.00 | 0.00 | 0.00 | 29 | 1011.4 |
| 20260505092015 | 68 | 162 | 0.0 | 4.0 | 0.00 | 0.00 | 0.00 | 29 | 1011.4 |
| 20260505091515 | 69 | 162 | 0.0 | 7.0 | 0.00 | 0.00 | 0.00 | 28 | 1011.4 |
| 20260505091015 | 69 | 179 | 4.0 | 7.0 | 0.00 | 0.00 | 0.00 | 27 | 1011.5 |
| 20260505090515 | 69 | 148 | 3.0 | 7.0 | 0.00 | 0.00 | 0.00 | 27 | 1011.3 |
| 20260505090015 | 69 | 181 | 4.0 | 9.0 | 0.00 | 0.00 | 0.00 | 27 | 1011.4 |
| 20260505085515 | 69 | 101 | 3.0 | 9.0 | 0.00 | 0.00 | 0.00 | 27 | 1011.3 |
| 20260505085015 | 69 | 75 | 2.0 | 7.0 | 0.00 | 0.00 | 0.00 | 28 | 1011.4 |
| 20260505084515 | 69 | 141 | 0.0 | 0.0 | 0.00 | 0.00 | 0.00 | 28 | 1011.5 |
| 20260505084015 | 68 | 100 | 0.0 | 0.0 | 0.00 | 0.00 | 0.00 | 28 | 1011.7 |
| 20260505083515 | 68 | 100 | 0.0 | 0.0 | 0.00 | 0.00 | 0.00 | 29 | 1011.7 |
| 20260505083015 | 67 | 100 | 0.0 | 5.0 | 0.00 | 0.00 | 0.00 | 30 | 1011.5 |
| 20260505082515 | 67 | 100 | 0.0 | 5.0 | 0.00 | 0.00 | 0.00 | 30 | 1011.7 |
| 20260505082015 | 67 | 141 | 1.0 | 4.0 | 0.00 | 0.00 | 0.00 | 31 | 1011.8 |
| 20260505081515 | 68 | 58 | 0.0 | 2.0 | 0.00 | 0.00 | 0.00 | 31 | 1011.9 |
| 20260505081015 | 69 | 143 | 0.0 | 3.0 | 0.00 | 0.00 | 0.00 | 29 | 1011.9 |
| 20260505080515 | 69 | 143 | 0.0 | 5.0 | 0.00 | 0.00 | 0.00 | 27 | 1012.0 |